{"data":{"norad_id":59581,"intl_designator":"2024-076T","name":"STARLINK-31690","alt_names":[],"object_type":"PAYLOAD","status":"ACTIVE","operator":null,"country":"US","launch_date":"2024-04-23","launch_site_code":"AFETR","launch_vehicle":null,"mission":null,"orbit_class":"UNKNOWN","rcs_meters":null,"size_class":null,"mass_kg":null,"dimensions":null,"purposes":["comms"],"wikipedia_slug":null,"has_3d_model":false,"image_url":null,"decayed_at":null,"tle_current":{"epoch":"2026-05-25T02:52:11.553024Z","epoch_age_seconds":67852,"freshness":"FRESH","line1":"1 59581U 24076T   26145.11957816  .00001017  00000+0  46503-4 0  9993","line2":"2 59581  43.0023 297.1859 0001477 273.5679  86.5003 15.27569322118207","mean_motion":15.27569322,"eccentricity":0.0001477,"inclination_deg":43.0023,"raan_deg":297.1859,"arg_perigee_deg":273.5679,"mean_anomaly_deg":86.5003,"bstar":4.6503e-5,"rev_number":11820,"period_min":94.267407656148,"perigee_km":482.06766809036,"apogee_km":484.09447190823,"semimajor_km":6861.2180699993,"source":"CELESTRAK","updated_at":"2026-05-25T13:38:18.988071Z"}}}